This is the latest recevied weather packets stored in our database for station/object KC5TIL-3. If no packets are shown the sender has not sent any weather packets the latest 10 day(s).
| Time | Temp. | Humidity | Pressure | Rain* | Wind** | Luminosity | Snow |
|---|---|---|---|---|---|---|---|
| 1787902787 | 29.44° C | 22% | 1013.8 hPa | 0 mm | 2.68 m/s, 121° | - | - |
| 1787902488 | 30° C | 22% | 1013.8 hPa | 0 mm | 2.68 m/s, 117° | - | - |
| 1787902185 | 30° C | 21% | 1013.8 hPa | 0 mm | 3.13 m/s, 110° | - | - |
| 1787901875 | 30° C | 21% | 1013.8 hPa | 0 mm | 3.13 m/s, 121° | - | - |
| 1787901576 | 30.56° C | 21% | 1013.8 hPa | 0 mm | 2.68 m/s, 126° | - | - |
| 1787901278 | 30.56° C | 20% | 1013.8 hPa | 0 mm | 3.13 m/s, 109° | - | - |
| 1787900977 | 30.56° C | 20% | 1013.8 hPa | 0 mm | 3.13 m/s, 112° | - | - |
| 1787900679 | 30.56° C | 19% | 1013.8 hPa | 0 mm | 4.47 m/s, 103° | - | - |
| 1787900381 | 30.56° C | 19% | 1013.8 hPa | 0 mm | 4.47 m/s, 108° | - | - |
| 1787900079 | 30.56° C | 19% | 1013.8 hPa | 0 mm | 2.68 m/s, 128° | - | - |
| 1787899781 | 30.56° C | 19% | 1013.8 hPa | 0 mm | 3.58 m/s, 119° | - | - |
| 1787899483 | 31.11° C | 19% | 1013.8 hPa | 0 mm | 3.13 m/s, 132° | - | - |
| 1787899182 | 31.11° C | 19% | 1013.8 hPa | 0 mm | 2.24 m/s, 121° | - | - |
| 1787898883 | 31.11° C | 18% | 1013.8 hPa | 0 mm | 4.47 m/s, 139° | - | - |
| 1787898585 | 31.11° C | 18% | 1013.8 hPa | 0 mm | 2.68 m/s, 112° | - | - |
| 1787898284 | 31.11° C | 18% | 1013.8 hPa | 0 mm | 3.58 m/s, 130° | - | - |
| 1787897986 | 31.11° C | 18% | 1013.8 hPa | 0 mm | 4.47 m/s, 116° | - | - |
| 1787897688 | 31.11° C | 18% | 1013.8 hPa | 0 mm | 3.13 m/s, 119° | - | - |
| 1787897386 | 31.11° C | 18% | 1013.8 hPa | 0 mm | 3.13 m/s, 117° | - | - |
| 1787897088 | 31.11° C | 18% | 1013.8 hPa | 0 mm | 4.02 m/s, 115° | - | - |
| 1787896790 | 31.67° C | 17% | 1013.8 hPa | 0 mm | 2.68 m/s, 118° | - | - |
| 1787896489 | 31.67° C | 17% | 1013.8 hPa | 0 mm | 2.68 m/s, 110° | - | - |
| 1787896190 | 31.67° C | 17% | 1013.8 hPa | 0 mm | 2.24 m/s, 129° | - | - |
| 1787895892 | 31.67° C | 17% | 1013.8 hPa | 0 mm | 2.68 m/s, 122° | - | - |
| 1787895591 | 31.67° C | 17% | 1013.8 hPa | 0 mm | 3.58 m/s, 120° | - | - |
* Rain latest hour (hover to see other rain measurements)
** Current wind speed in m/s (hover to see current wind gust speed)